User: anonymous   Login
Location: Unspecified
(0.0000°N, 0.0000°E)
Time: 08:53:00
(UTC+00:00)
Language:

STARLINK-35114 - Orbit

View from above orbital plane
View from above orbital plane
View from above satellite
View from above satellite

Ground track
Ground track

The orbit is defined by the following mean orbital elements,

1 65502U          26145.65572578 +.00000000 +00000-0 +36748-3 0 00005
2 65502  53.1587 272.8130 0002243  97.7164 262.4093 15.34399361    07
Epoch (UTC): 25 May 2026 15:44:14
Eccentricity: 0.0002243
inclination: 53.1587°
perigee height: 461 km
apogee height: 464 km
right ascension of ascending node: 272.8130°
argument of perigee: 97.7164°
revolutions per day: 15.34399361
mean anomaly at epoch: 262.4093°

The dashed part of the orbit path shows where the satellite is in the earth's shadow,  

DLR